Weather History for KEAT - January, 2013

Change the Weather History Date:

Tuesday, January 8, 2013

  Actual Average Record
Temperature  
Mean Temperature 37 °F 26 °F  
Max Temperature 41 °F 32 °F 52 °F (2009)
Min Temperature 32 °F 21 °F -1 °F (1974)
Degree Days  
Heating Degree Days 28 39  
Month to date heating degree days 326 313  
Since 1 July heating degree days 2989 3411  
Cooling Degree Days 0 0  
Month to date cooling degree days 0 0  
Year to date cooling degree days 0 0  
Moisture  
Dew Point 30 °F    
Average Humidity 89    
Maximum Humidity 100    
Minimum Humidity 75    
Precipitation  
Precipitation 0.10 in 0.07 in 0.27 in (1995)
Month to date precipitation 0.80 0.57  
Year to date precipitation 0.80 0.57  
Snow  
Snow 0.30 in 0.60 in - ()
Month to date snowfall 8.9 4.9  
Since 1 July snowfall 39.2 29.8  
Snow Depth 9.00 in    
Sea Level Pressure  
Sea Level Pressure 29.97 in    
Wind  
Wind Speed 2 mph (South)    
Max Wind Speed 10 mph    
Max Gust Speed -    
Visibility 3 miles    
Events Fog , Rain , Snow    
T = Trace of Precipitation, MM = Missing Value Source: NWS Daily Summary

Daily Weather History Graph

Daily Weather History Graph

Search for Another Location

Airport or City:

Trip Planner

Search our weather history database for the weather conditions in past years. The results will help you decide how hot, cold, wet, or windy it might be!

Date:

Astronomy

Jan. 08, 2013 Rise Set
Actual Time 7:46 AM PST 4:28 PM PST
Civil Twilight 7:11 AM PST 5:04 PM PST
Nautical Twilight 6:33 AM PST 5:42 PM PST
Astronomical Twilight 5:56 AM PST 6:19 PM PST
Moon 4:24 AM PST (1/8) 1:36 PM PST (1/8)
Length of Visible Light 9h 52m
Length of Day
8h 41m
Waning Crescent, 13% of the Moon is Illuminated
Jan 8
Waning Crescent
Jan 11
New
Jan 18
First Quarter
Jan 26
Full
Feb 3
Last Quarter

Hourly Weather History & Observations

Time (PST) Temp. Windchill Dew Point Humidity Pressure Visibility Wind Dir Wind Speed Gust Speed Precip Events Conditions
12:55 AM 34.0 °F 28.8 °F 27.0 °F 75% 30.09 in 10.0 mi East 5.8 mph - N/A   Clear
1:55 AM 33.1 °F 30.0 °F 27.0 °F 78% 30.10 in 10.0 mi SSW 3.5 mph - N/A   Clear
2:55 AM 30.9 °F 26.2 °F 26.1 °F 82% 30.11 in 10.0 mi NE 4.6 mph - N/A   Clear
3:55 AM 33.1 °F - 26.1 °F 75% 30.12 in 10.0 mi Calm Calm - N/A   Clear
4:55 AM 33.1 °F - 26.1 °F 75% 30.11 in 10.0 mi Calm Calm - N/A   Partly Cloudy
6:55 AM 35.1 °F - 28.9 °F 78% 30.10 in 10.0 mi Calm Calm - N/A   Overcast
7:55 AM 34.0 °F 31.0 °F 28.0 °F 79% 30.10 in 10.0 mi West 3.5 mph - N/A   Overcast
8:55 AM 34.0 °F 31.0 °F 28.9 °F 82% 30.11 in 9.0 mi WNW 3.5 mph - 0.00 in Rain Light Rain
9:55 AM 33.1 °F 30.0 °F 30.9 °F 92% 30.11 in 5.0 mi East 3.5 mph - 0.06 in Rain Light Rain
10:24 AM 32.0 °F 27.5 °F 30.2 °F 93% 30.08 in 0.8 mi South 4.6 mph - 0.01 in Rain Light Rain
10:33 AM 32.0 °F 28.7 °F 30.2 °F 93% 30.07 in 0.2 mi SSE 3.5 mph - 0.02 in Fog , Snow Light Snow
10:55 AM 32.0 °F - 30.9 °F 96% 30.09 in 0.5 mi Calm Calm - 0.03 in Fog , Snow Light Snow
11:05 AM 32.0 °F - 32.0 °F 100% 30.05 in 0.2 mi Calm Calm - 0.01 in Fog , Snow Light Snow
11:13 AM 32.0 °F - 32.0 °F 100% 30.04 in 0.5 mi Calm Calm - 0.01 in Fog , Snow Light Snow
11:28 AM 33.8 °F - 32.0 °F 93% 30.03 in 2.0 mi Calm Calm - 0.01 in   Overcast
11:33 AM 33.8 °F - 30.2 °F 87% 30.02 in 3.0 mi Calm Calm - 0.01 in   Overcast
11:47 AM 33.8 °F - 30.2 °F 87% 30.02 in 5.0 mi Calm Calm - 0.01 in   Overcast
11:55 AM 34.0 °F - 32.0 °F 92% 30.05 in 5.0 mi Calm Calm - 0.01 in   Overcast
12:23 PM 33.8 °F 30.8 °F 32.0 °F 93% 30.00 in 2.0 mi SSE 3.5 mph - 0.00 in   Overcast
12:26 PM 33.8 °F - 30.2 °F 87% 30.00 in 0.8 mi Calm Calm - 0.00 in   Overcast
12:36 PM 33.8 °F - 32.0 °F 93% 29.99 in 0.2 mi Calm Calm - 0.00 in Fog Fog
12:48 PM 33.8 °F - 32.0 °F 93% 29.98 in 1.0 mi Calm Calm - 0.00 in   Overcast
12:51 PM 33.8 °F - 32.0 °F 93% 29.98 in 3.0 mi Calm Calm - 0.00 in   Overcast
12:55 PM 34.0 °F 31.0 °F 30.9 °F 89% 30.01 in 4.0 mi ENE 3.5 mph - 0.00 in   Overcast
1:42 PM 33.8 °F 30.8 °F 30.2 °F 87% 29.97 in 0.2 mi West 3.5 mph - N/A Fog Fog
1:55 PM 32.0 °F 28.7 °F 30.0 °F 92% 30.00 in 0.2 mi West 3.5 mph - N/A Fog Fog
2:16 PM 32.0 °F - 30.2 °F 93% 29.96 in 0.2 mi Calm Calm - 0.00 in Fog Fog
2:24 PM 33.8 °F - 30.2 °F 87% 29.96 in 0.5 mi Calm Calm - 0.00 in Fog , Rain Light Rain
2:35 PM 33.8 °F - 30.2 °F 87% 29.95 in 0.2 mi Calm Calm - 0.00 in Fog Fog
2:55 PM 33.1 °F - 30.9 °F 92% 29.99 in 0.2 mi Calm Calm - 0.00 in Fog , Rain Light Rain
3:05 PM 32.0 °F - 30.2 °F 93% 29.94 in 0.2 mi Calm Calm - 0.00 in Fog , Rain Light Rain
3:21 PM 32.0 °F - 30.2 °F 93% 29.94 in 0.2 mi Calm Calm - 0.00 in Fog Fog
3:55 PM 32.0 °F - 30.0 °F 92% 29.96 in 0.5 mi Calm Calm - 0.00 in Fog Fog
4:25 PM 33.8 °F - 30.2 °F 87% 29.91 in 2.0 mi Calm Calm - N/A   Overcast
4:33 PM 33.8 °F 30.8 °F 30.2 °F 87% 29.91 in 0.8 mi South 3.5 mph - N/A   Overcast
4:41 PM 32.0 °F - 30.2 °F 93% 29.91 in 0.2 mi Calm Calm - N/A Fog Fog
4:55 PM 32.0 °F - 30.9 °F 96% 29.93 in 0.2 mi Calm Calm - N/A Fog Fog
5:55 PM 32.0 °F - 30.0 °F 92% 29.88 in 0.2 mi Calm Calm - N/A Fog Fog
6:14 PM 32.0 °F 27.5 °F 30.2 °F 93% 29.83 in 0.5 mi SSW 4.6 mph - N/A Fog Fog
6:24 PM 32.0 °F - 30.2 °F 93% 29.83 in 0.2 mi Calm Calm - N/A Fog Fog
6:55 PM 32.0 °F - 30.0 °F 92% 29.84 in 0.2 mi Calm Calm - N/A Fog Fog
7:16 PM 32.0 °F - 30.2 °F 93% 29.81 in 0.5 mi Calm Calm - N/A Fog Fog
7:55 PM 32.0 °F - 30.0 °F 92% 29.83 in 0.5 mi Calm Calm - N/A Fog Fog
9:49 PM 33.8 °F 30.8 °F 30.2 °F 87% 29.75 in 2.0 mi East 3.5 mph - N/A   Mostly Cloudy
9:50 PM 33.8 °F 30.8 °F 30.2 °F 87% 29.75 in 3.0 mi East 3.5 mph - N/A   Mostly Cloudy
10:55 PM 32.0 °F 28.7 °F 30.9 °F 96% 29.78 in 3.0 mi WSW 3.5 mph - N/A   Mostly Cloudy
11:10 PM 32.0 °F - 30.2 °F 93% 29.73 in 2.5 mi Calm Calm - N/A   Scattered Clouds
11:55 PM 34.0 °F 26.0 °F 30.9 °F 89% 29.77 in 9.0 mi West 10.4 mph - N/A   Clear